Flag for Slovakia Weather past 2 weeks in Bratislava, Slovakia

Now
41 °F

Clear.


Feels Like: 34 °F
Forecast: 25 / 37 °F
Wind: 12 mph from Northwest

Location: Bratislava Ivanka

Current Time: Dec 26, 2014 at 12:00:49 AM

Latest Report: Dec 25, 2014 at 11:30 PM


Visibility: 10 mi

Pressure: 30.18 "Hg

Humidity: 57%

Dew point: 27 °F

Location of BratislavaLocation

Historic Weather in Bratislava — Graph

°F

Bratislava temperature yesterday

Maximum temperature yesterday: 52 °F (at 3:30 AM)
Minimum temperature yesterday: 39 °F (at 8:00 PM)
Average temperature yesterday: 45 °F

Past Weeks' High & Low Weather Summary

 TemperatureHumidityPressure
High61 °F (Dec 19, 1:00 PM)100% (Dec 16, 2:00 AM)30.39 "Hg (Dec 16, 2:00 AM)
Low30 °F (Dec 11, 4:30 AM)27% (Dec 24, 1:00 PM)29.86 "Hg (Dec 16, 8:00 PM)
Average43 °F75%30.07 "Hg
* Reported Dec 10 11:00 PM — Dec 25 11:00 PM, Bratislava, Weather by CustomWeather, © 2014

Note: Actual official high and low records may vary slightly from our data, if they occured in-between our weather recording intervals... More about our weather records

Advertising

Bratislava weather history for previous 24 hours

 ConditionsComfort  
Time TempWeatherWind HumidityBarometerVisibility
11:00 PM
Dec 25
41 °FClear.13 mph57%30.18 "Hg10 mi
10:00 PM41 °FPassing clouds.10 mph57%30.18 "HgN/A
9:30 PM41 °FPassing clouds.10 mph61%30.18 "HgN/A
9:00 PM41 °FPassing clouds.9 mph61%30.18 "HgN/A
8:30 PM41 °FPassing clouds.8 mph61%30.18 "HgN/A
8:00 PM39 °FPassing clouds.7 mph65%30.18 "HgN/A
7:30 PM41 °FPassing clouds.8 mph61%30.18 "HgN/A
7:00 PM41 °FPassing clouds.9 mph61%30.18 "HgN/A
6:30 PM41 °FPassing clouds.9 mph61%30.18 "HgN/A
6:00 PM41 °FPassing clouds.9 mph61%30.18 "HgN/A
5:30 PM41 °FPassing clouds.9 mph66%30.15 "HgN/A
5:00 PM43 °FPassing clouds.7 mph61%30.15 "HgN/A
4:30 PM43 °FPassing clouds.5 mph66%30.15 "HgN/A
4:00 PM43 °FPassing clouds.12 mph66%30.12 "HgN/A
3:30 PM43 °FScattered clouds.10 mph71%30.12 "HgN/A
3:00 PM43 °FPartly sunny.10 mph76%30.15 "HgN/A
2:30 PM43 °FScattered clouds.7 mph76%30.12 "HgN/A
2:00 PM43 °FScattered clouds.8 mph76%30.12 "HgN/A
1:30 PM43 °FScattered clouds.8 mph76%30.12 "HgN/A
1:00 PM43 °FBroken clouds.9 mph76%30.12 "HgN/A
12:30 PM43 °FSprinkles. Partly sunny.7 mph81%30.12 "HgN/A
12:00 PM43 °FSprinkles. Broken clouds.17 mph81%30.15 "HgN/A
11:30 AM46 °FScattered showers. Partly sunny.12 mph71%30.12 "HgN/A
11:00 AM48 °FPartly sunny.12 mph71%30.12 "HgN/A
10:30 AM48 °FPartly sunny.20 mph71%30.12 "HgN/A
10:00 AM48 °FScattered clouds.18 mph71%30.09 "HgN/A
9:30 AM50 °FPassing clouds.22 mph62%30.09 "HgN/A
9:00 AM50 °FSunny.18 mph62%30.09 "Hg10 mi
8:30 AM48 °FSunny.18 mph66%30.09 "Hg10 mi
8:00 AM48 °FPassing clouds.18 mph66%30.09 "HgN/A
7:30 AM48 °FClear.18 mph66%30.07 "Hg10 mi
7:00 AM48 °FPassing clouds.14 mph66%30.07 "HgN/A
6:30 AM48 °FPassing clouds.14 mph66%30.07 "HgN/A
6:00 AM48 °FClear.17 mph66%30.07 "Hg10 mi
5:30 AM48 °FClear.20 mph66%30.07 "Hg10 mi
4:30 AM50 °FPartly cloudy.15 mph58%30.07 "HgN/A
4:00 AM50 °FPartly cloudy.14 mph54%30.07 "HgN/A
3:30 AM52 °FPassing clouds.13 mph50%30.07 "HgN/A
3:00 AM50 °FPassing clouds.9 mph54%30.09 "HgN/A
2:30 AM50 °FClear.15 mph50%30.09 "Hg10 mi
2:00 AM50 °FClear.14 mph50%30.09 "Hg10 mi
1:30 AM50 °FClear.16 mph50%30.09 "Hg10 mi
1:00 AM50 °FClear.16 mph50%30.09 "Hg10 mi
12:30 AM48 °FClear.9 mph54%30.09 "Hg10 mi
12:00 AM48 °FClear.9 mph54%30.09 "Hg10 mi
Weather by CustomWeather, © 2014

See weather overviewHow to use our weather pages